View from above orbital plane
|
View from above satellite
|
Ground track
|
The orbit data is extracted from the following two-line orbital elements,
1 09903U 77024A 21062.67727801 -.00000157 00000-0 -98962-4 0 9993
2 09903 81.2553 208.2304 0038797 60.9173 299.5873 14.08290521255665
Epoch (UTC): | 03 March 2021 16:15:16 |
Eccentricity: | 0.0038797 |
inclination: | 81.2553° |
perigee height: | 837 km |
apogee height: | 893 km |
right ascension of ascending node: | 208.2304° |
argument of perigee: | 60.9173° |
revolutions per day: | 14.08290521 |
mean anomaly at epoch: | 299.5873° |
orbit number at epoch: | 25566 |
The dashed part of the orbit path shows where the satellite is in the earth's shadow,
|
|